Date String (YYYY-MM-DD hh:mm:ss) UTC,Instrument flags,absolute air pressure of the measurement (hPa),sample flow rate (lpm),inlet stack bypass flow (lpm),air temperature of the measurement (°C),ambient temperature measured by the external sensor (°C),aerosol sample conditioner tube jacket temperature (°C),OPC LED temperature (°C),internal box temperature (°C),relative humidity of the measurement (%),span deviation,mass concentration of particles derived from Lorenz-Mie calculation of OPC scattering (μg/m³),mass concentration of particles derived from Lorenz-Mie calculation of OPC scattering (μg/m³),mass concentration of particles derived from Lorenz-Mie calculation of OPC scattering (μg/m³)
DateTimeUTC,F1_M11,P_M11,Q1_M11,Q2_M11,T1_M11,T2_M11,T3_M11,T4_M11,T5_M11,U1_M11,ZSPAN_M11,X0_M11,X2_M11,X1_M11
2023-06-22 06:00:00,SystemResetWarning,0832.7,4.98,000.00,031.1,026.5,000.0,039.3,032.0,34.2,0001.7,0019.92,0009.00,0006.87
2023-06-22 06:01:00,SystemResetWarning,0832.8,5.02,000.00,031.1,025.2,000.0,039.3,031.9,34.1,0001.5,0019.19,0009.01,0006.89
2023-06-22 06:02:00,SystemResetWarning,0832.8,5.00,000.00,030.9,025.2,000.0,039.2,031.5,34.4,0001.8,0018.72,0009.01,0006.89
2023-06-22 06:03:00,SystemResetWarning,0832.7,4.97,000.00,030.8,025.5,000.0,039.2,031.4,35.0,0001.3,0018.83,0009.03,0006.93
2023-06-22 06:04:00,SystemResetWarning,0832.7,5.03,000.00,030.8,026.0,000.0,039.2,031.4,35.2,0001.3,0018.67,0008.99,0006.96
2023-06-22 06:05:00,SystemResetWarning,0832.7,5.00,000.00,031.0,026.4,000.0,039.2,031.6,34.9,0001.2,0018.62,0009.00,0006.97
2023-06-22 06:06:00,SystemResetWarning,0832.8,4.98,000.00,031.2,026.8,000.0,039.2,031.7,34.7,0001.3,0019.28,0008.98,0006.99
2023-06-22 06:07:00,SystemResetWarning,0832.8,5.02,000.00,031.3,027.1,000.0,039.2,031.7,34.6,0001.5,0019.47,0008.99,0006.98
2023-06-22 06:08:00,SystemResetWarning,0833.3,5.01,000.00,031.3,027.4,000.0,039.2,031.7,34.5,0001.2,0019.53,0009.00,0006.98
2023-06-22 06:09:00,SystemResetWarning,0832.9,4.99,000.00,031.3,027.7,000.0,039.3,031.7,34.4,0001.0,0019.25,0008.92,0006.96
2023-06-22 06:10:00,SystemResetWarning,0833.2,4.99,000.00,031.3,027.9,000.0,039.3,031.7,34.5,0001.1,0019.04,0008.92,0006.95
2023-06-22 06:11:00,SystemResetWarning,0833.4,5.00,000.00,031.3,028.0,000.0,039.4,031.7,34.4,0001.3,0020.29,0008.96,0006.97
2023-06-22 06:12:00,SystemResetWarning,0833.0,5.01,000.00,031.3,028.1,000.0,039.4,031.8,34.4,0001.8,0021.52,0008.99,0006.96
2023-06-22 06:13:00,SystemResetWarning,0833.0,5.01,000.00,031.3,028.2,000.0,039.4,031.8,34.5,0002.0,0021.66,0009.00,0006.96
2023-06-22 06:14:00,SystemResetWarning,0833.0,5.00,000.00,031.3,028.3,000.0,039.5,031.9,34.5,0002.3,0021.78,0009.01,0006.97
2023-06-22 06:15:00,SystemResetWarning,0833.0,4.99,000.00,031.3,028.4,000.0,039.5,031.9,34.6,0002.5,0021.16,0008.97,0006.96
2023-06-22 06:16:00,SystemResetWarning,0833.0,5.00,000.00,031.3,028.5,000.0,039.5,031.9,34.7,0002.8,0021.09,0008.92,0006.96
2023-06-22 06:17:00,SystemResetWarning,0833.0,5.00,000.00,031.3,028.5,000.0,039.5,031.9,34.7,0002.9,0020.21,0008.95,0006.95
2023-06-22 06:18:00,SystemResetWarning,0833.1,5.00,000.00,031.3,028.6,000.0,039.5,032.0,34.7,0002.9,0019.88,0009.00,0006.95
2023-06-22 06:19:00,SystemResetWarning,0833.0,5.01,000.00,031.3,028.6,000.0,039.6,032.0,34.7,0002.8,0019.57,0008.95,0006.95
2023-06-22 06:20:00,SystemResetWarning,0833.2,5.00,000.00,031.3,028.7,000.0,039.6,032.0,34.7,0002.8,0020.17,0008.99,0006.97
2023-06-22 06:21:00,SystemResetWarning,0833.1,5.00,000.00,031.3,028.7,000.0,039.6,032.0,34.8,0002.6,0020.96,0009.06,0007.00
2023-06-22 06:22:00,SystemResetWarning,0833.1,4.99,000.00,031.3,028.7,000.0,039.6,032.0,34.8,0002.5,0020.27,0009.02,0006.99
2023-06-22 06:23:00,SystemResetWarning,0833.0,4.99,000.00,031.3,028.7,000.0,039.6,032.0,34.8,0002.2,0019.92,0009.00,0006.99
2023-06-22 06:24:00,SystemResetWarning,0833.0,4.99,000.00,031.3,028.6,000.0,039.6,032.0,34.9,0001.5,0020.03,0008.97,0007.00
2023-06-22 06:25:00,SystemResetWarning,0833.1,5.00,000.00,031.3,026.6,000.0,039.5,032.0,34.8,0001.4,0019.73,0009.05,0007.02
2023-06-22 06:26:00,SystemResetWarning,0833.0,5.00,000.00,031.2,025.4,000.0,039.4,031.9,34.8,0001.2,0019.95,0009.04,0007.02
2023-06-22 06:27:00,SystemResetWarning,0832.9,4.99,000.00,031.1,025.2,000.0,039.4,031.6,35.1,0000.8,0020.98,0009.10,0007.05
2023-06-22 06:28:00,SystemResetWarning,0832.9,5.03,000.00,031.0,025.6,000.0,039.4,031.5,35.4,0000.7,0021.16,0009.09,0007.07
2023-06-22 06:29:00,SystemResetWarning,0832.9,5.00,000.00,031.2,026.0,000.0,039.4,031.7,35.0,0000.2,0021.43,0009.08,0007.10
2023-06-22 06:30:00,SystemResetWarning,0833.0,4.98,000.00,031.4,026.5,000.0,039.4,031.8,34.5,-000.2,0021.37,0009.14,0007.11
2023-06-22 06:31:00,SystemResetWarning,0833.0,5.00,000.00,031.6,026.8,000.0,039.4,031.8,34.3,0000.5,0021.06,0009.17,0007.13
2023-06-22 06:32:00,SystemResetWarning,0833.2,5.01,000.00,031.6,027.2,000.0,039.4,031.8,34.2,0000.8,0020.46,0009.14,0007.12
2023-06-22 06:33:00,SystemResetWarning,0833.0,5.00,000.00,031.6,027.4,000.0,039.5,031.8,34.2,0000.7,0020.07,0009.15,0007.12
2023-06-22 06:34:00,SystemResetWarning,0832.8,4.98,000.00,031.7,027.7,000.0,039.5,031.8,34.3,0000.9,0018.74,0009.12,0007.10
2023-06-22 06:35:00,SystemResetWarning,0832.7,5.00,000.00,031.6,027.9,000.0,039.6,031.8,34.2,0001.3,0017.93,0009.10,0007.09
2023-06-22 06:36:00,SystemResetWarning,0832.7,5.01,000.00,031.6,028.0,000.0,039.6,031.9,34.2,0001.7,0017.76,0009.04,0007.07
2023-06-22 06:37:00,SystemResetWarning,0832.7,5.01,000.00,031.6,028.1,000.0,039.6,031.9,34.3,0001.9,0017.77,0009.06,0007.06
2023-06-22 06:38:00,SystemResetWarning,0832.6,4.99,000.00,031.6,028.3,000.0,039.7,031.9,34.3,0002.4,0016.92,0009.08,0007.06
2023-06-22 06:39:00,SystemResetWarning,0832.6,4.99,000.00,031.6,028.3,000.0,039.7,031.9,34.4,0002.4,0016.70,0009.12,0007.05
2023-06-22 06:40:00,SystemResetWarning,0832.6,5.00,000.00,031.6,028.4,000.0,039.7,031.9,34.5,0002.6,0016.88,0009.17,0007.05
2023-06-22 06:41:00,SystemResetWarning,0832.6,5.01,000.00,031.6,028.5,000.0,039.8,032.0,34.5,0002.5,0017.02,0009.19,0007.07
2023-06-22 06:42:00,SystemResetWarning,0832.6,5.00,000.00,031.6,028.5,000.0,039.8,032.0,34.5,0002.3,0017.78,0009.17,0007.09
2023-06-22 06:43:00,SystemResetWarning,0832.6,4.99,000.00,031.6,028.6,000.0,039.8,032.0,34.6,0002.0,0017.84,0009.21,0007.12
2023-06-22 06:44:00,SystemResetWarning,0832.7,4.99,000.00,031.5,028.6,000.0,039.8,032.0,34.6,0002.3,0017.76,0009.26,0007.16
2023-06-22 06:45:00,SystemResetWarning,0832.7,5.00,000.00,031.5,028.7,000.0,039.8,032.0,34.6,0002.0,0018.81,0009.33,0007.20
2023-06-22 06:46:00,SystemResetWarning,0832.8,5.00,000.00,031.5,028.7,000.0,039.8,032.1,34.6,0001.6,0019.45,0009.39,0007.24
2023-06-22 06:47:00,SystemResetWarning,0833.3,5.00,000.00,031.5,028.8,000.0,039.8,032.1,34.7,0001.5,0019.65,0009.47,0007.27
2023-06-22 06:48:00,SystemResetWarning,0833.0,5.01,000.00,031.5,028.8,000.0,039.8,032.1,34.8,0001.1,0020.07,0009.54,0007.32
2023-06-22 06:49:00,SystemResetWarning,0832.9,4.99,000.00,031.5,028.0,000.0,039.8,032.1,34.8,0000.7,0020.30,0009.57,0007.38
2023-06-22 06:50:00,SystemResetWarning,0833.2,5.00,000.00,031.5,026.0,000.0,039.7,031.9,34.9,0000.9,0020.14,0009.57,0007.41
2023-06-22 06:51:00,SystemResetWarning,0832.8,5.01,000.00,031.4,025.3,000.0,039.6,031.9,34.9,0000.7,0019.51,0009.54,0007.43
2023-06-22 06:52:00,SystemResetWarning,0832.8,5.02,000.00,031.2,025.4,000.0,039.6,031.5,35.0,0000.9,0019.43,0009.55,0007.45
2023-06-22 06:53:00,SystemResetWarning,0832.8,4.98,000.00,031.2,025.8,000.0,039.5,031.5,34.8,0001.2,0018.94,0009.59,0007.46
2023-06-22 06:54:00,SystemResetWarning,0833.2,5.00,000.00,031.2,026.3,000.0,039.5,031.6,34.7,0001.3,0019.88,0009.61,0007.47
2023-06-22 06:55:00,SystemResetWarning,0833.0,5.01,000.00,031.2,026.7,000.0,039.5,031.6,34.7,0001.2,0021.09,0009.58,0007.47
2023-06-22 06:56:00,SystemResetWarning,0833.1,5.00,000.00,031.2,027.1,000.0,039.5,031.7,34.8,0001.2,0020.57,0009.54,0007.45
2023-06-22 06:57:00,SystemResetWarning,0833.1,4.99,000.00,031.1,027.3,000.0,039.5,031.7,34.8,0001.3,0019.81,0009.48,0007.43
2023-06-22 06:58:00,SystemResetWarning,0833.2,5.00,000.00,031.1,027.6,000.0,039.5,031.7,34.9,0001.3,0020.02,0009.45,0007.41
2023-06-22 06:59:00,SystemResetWarning,0833.2,5.00,000.00,031.1,027.8,000.0,039.5,031.7,34.9,0001.2,0019.95,0009.34,0007.38
